Skip Page Navigation
NASA JPL Caltech
NASA Logo - Jet Propulsion Laboratory + View the NASA Portal
+ Center for Near-Earth Object Studies
JPL Home Earth Solar System Stars & Galaxies Technology
JPL Solar System Dynamics
BODIES ORBITS EPHEMERIDES TOOLS PHYSICAL DATA DISCOVERY FAQ SITE MAP
IMPORTANT: The SSD Announcement email list is now available. Major changes are coming in the near future, including possible hostname and/or URL changes. To be notified of such changes, subscribe to this email list.

Please visit this page for more details.


JPL Small-Body Database Browser
Search: [ help ]  
347487 (1995 MC7)
Classification: Main-belt Asteroid          SPK-ID: 2347487
Ephemeris | Orbit Diagram | Orbital Elements | Mission Design | Physical Parameters | Discovery Circumstances ]

[ show orbit diagram ]
Orbital Elements at Epoch 2459000.5 (2020-May-31.0) TDB
Reference: JPL 7 (heliocentric ecliptic J2000)
 Element Value Uncertainty (1-sigma)   Units 
e .01660177284436447 1.2265e-07  
a 2.513779645061057 2.1859e-08 au
q 2.472046446412966 3.0126e-07 au
i 13.21645883249363 9.9978e-06 deg
node 277.4970167890295 3.347e-05 deg
peri 9.580696499931346 0.00021293 deg
M 104.9101258652586 0.00020943 deg
tp 2458576.267298967236
(2019-Apr-02.76729897)
0.00084722 TDB
period 1455.758165498211
3.99
1.8989e-05
5.199e-08
d
yr
n .2472938215509137 3.2256e-09 deg/d
Q 2.555512843709148 2.2222e-08 au
  Orbit Determination Parameters
   # obs. used (total)      128  
   data-arc span      8839 days (24.20 yr)  
   first obs. used      1995-06-24  
   last obs. used      2019-09-05  
   planetary ephem.      DE431  
   SB-pert. ephem.      SB431-N16  
   condition code      0  
   norm. resid. RMS      .55702  
   source      ORB  
   producer      Otto Matic  
   solution date      2019-Sep-24 06:33:36  

Additional Information
 Earth MOID = 1.45597 au 
 Jupiter MOID = 2.54732 au 
 T_jup = 3.423 
[ hide covariance matrix ]
Orbital Elements at Epoch 2457208.5 (2015-Jul-05.0) TDB
Reference: JPL 7 (heliocentric ecliptic J2000)
 Element Value Uncertainty (1-sigma)   Units 
e .01732474900072915 1.2267e-07  
q 2.47097055928094 3.0194e-07 au
tp 2457134.525541136925
(2015-Apr-22.02554114)
0.00079835 TDB
node 277.5510785628595 3.3504e-05 deg
peri 13.16594711263474 0.00020123 deg
i 13.20684979878197 9.9916e-06 deg
  Orbit Determination Parameters
   # obs. used (total)      128  
   data-arc span      8839 days (24.20 yr)  
   first obs. used      1995-06-24  
   last obs. used      2019-09-05  
   planetary ephem.      DE431  
   SB-pert. ephem.      SB431-N16  
   condition code      0  
   norm. resid. RMS      .55702  
   source      ORB  
   producer      Otto Matic  
   solution date      2019-Sep-24 06:33:36  

Additional Information
 Jupiter MOID = 2.54732 au 
 T_jup = 3.423 
Orbit Covariance (6×6)
  e q tp node peri i
e 1.504884883380344E-14 -3.695749248041106E-14 1.216106156578935E-11 7.876671219552998E-15 2.381496997761263E-12 -8.092533194100395E-14
q -3.695749248041106E-14 9.117053047715346E-14 -3.306427056557427E-11 -2.46365004000575E-14 -6.638311638480051E-12 1.997415185532619E-13
tp 1.216106156578935E-11 -3.306427056557427E-11 6.373690312263203E-7 7.01638313582208E-10 1.584299055105048E-7 -1.369707378459866E-13
node 7.876671219552998E-15 -2.46365004000575E-14 7.01638313582208E-10 1.122499727660807E-9 -9.166001770212111E-10 1.935060380105633E-10
peri 2.381496997761263E-12 -6.638311638480051E-12 1.584299055105048E-7 -9.166001770212111E-10 4.049552102783048E-8 -1.848547066448626E-10
i -8.092533194100395E-14 1.997415185532619E-13 -1.369707378459866E-13 1.935060380105633E-10 -1.848547066448626E-10 9.983276966234658E-11

Ephemeris | Orbit Diagram | Orbital Elements | Mission Design | Physical Parameters | Discovery Circumstances ]

Physical Parameter Table
Parameter Symbol Value Units Sigma Reference Notes
absolute magnitude H 16.6   n/a MPO494814  

347487 (1995 MC7)          Discovered 1995-Jun-29 by Spacewatch at Kitt Peak
Reference: 20121228/Numbers.arcLast Updated: 2013-01-02

Alternate Designations
 1995 MC7 = 2003 NA10 
Ephemeris | Orbit Diagram | Orbital Elements | Mission Design | Physical Parameters | Discovery Circumstances ]
ABOUT SSD CREDITS/AWARDS PRIVACY/COPYRIGHT GLOSSARY LINKS
FirstGov 2020-Apr-08 05:28 UT
(server date/time)  
NASA Home Page
Site Manager:   Ryan S. Park
Webmaster  Alan B. Chamberlin